Theta_e
296 296 296 297 297 297 298 300 301 303 306 309 311 312 314 316 318 319 320 321 321 322 322 322 322 322 322 322 322 322 321 321 322 322 322 323 322 321 320 320 320 320 319 320 320 320 319 320 320 320 319 319 318 318 318 319 319 318 317 317 317 318
295 295 294 295 295 295 296 296 297 300 304 307 309 311 312 313 315 317 318 320 321 321 322 322 322 322 322 322 322 321 321 321 322 322 322 322 322 321 321 321 321 320 320 319 320 320 320 320 320 320 320 319 319 319 318 318 318 317 317 317 317 317
296 293 291 292 292 291 292 293 295 298 301 304 307 309 310 312 314 316 317 318 319 319 320 321 321 321 322 322 322 322 322 322 321 322 322 322 321 321 320 320 321 321 320 320 319 320 320 320 320 320 320 319 319 319 318 318 317 317 316 315 315 316
295 293 290 289 288 290 290 292 292 294 297 303 305 307 309 311 312 314 316 316 318 318 319 320 320 321 321 321 321 321 322 322 321 322 321 320 322 321 321 321 321 321 320 320 320 320 320 320 321 320 320 318 318 318 319 318 316 315 316 316 315 314
291 290 290 290 290 291 291 290 291 293 295 297 301 305 308 309 311 311 313 314 315 316 317 317 317 317 317 318 319 319 320 321 320 320 320 320 320 320 321 321 321 320 320 320 320 320 319 320 320 320 319 318 318 317 317 318 317 316 315 314 314 314
290 289 291 292 291 290 291 291 291 292 293 294 297 300 304 303 306 307 308 310 312 313 313 314 314 312 313 315 317 317 318 319 318 317 318 320 320 318 319 321 320 319 319 319 318 318 318 318 318 318 318 319 317 317 318 316 316 315 315 315 314 314
293 293 293 292 292 291 291 291 292 292 292 292 293 296 297 300 300 303 306 306 308 308 309 310 310 310 311 312 314 314 315 315 314 313 315 318 318 319 318 317 318 319 318 318 318 317 317 317 317 318 317 318 318 317 317 316 315 314 314 314 314 307
293 292 291 291 291 292 292 291 291 291 291 292 291 293 293 295 294 299 302 303 304 306 305 307 307 308 310 310 310 311 311 311 311 312 313 316 319 317 317 317 316 317 317 317 317 317 317 317 317 317 317 316 315 315 315 315 314 313 313 313 313 313
292 293 293 292 292 290 291 291 292 291 290 291 290 290 291 291 292 294 298 300 302 305 305 306 306 308 308 307 308 306 306 307 309 310 311 311 314 316 315 315 315 314 316 316 316 316 316 317 316 316 316 315 314 313 312 312 312 311 311 311 311 310
293 293 293 292 292 290 289 290 290 291 291 292 291 290 289 289 289 291 293 297 299 301 304 304 304 305 306 305 304 305 305 305 305 307 308 307 310 312 313 313 314 314 313 315 315 316 316 316 315 314 313 312 312 312 311 311 310 310 309 307 307 306
293 294 294 293 291 290 290 290 290 289 289 289 290 289 290 288 288 290 291 293 296 299 300 300 300 300 301 301 302 303 303 303 304 303 304 304 306 308 310 311 312 312 311 312 313 313 312 313 312 312 311 311 310 311 310 310 309 308 307 304 300 298
292 293 293 292 292 292 291 291 291 290 291 291 290 290 290 287 288 290 290 291 294 296 296 296 297 298 299 300 301 301 300 300 299 300 299 301 302 303 304 305 307 308 309 308 307 307 308 309 311 302 302 303 309 309 309 308 306 305 304 300 297 294
291 291 291 293 293 292 292 293 293 291 290 291 290 290 290 288 288 290 291 291 292 293 293 294 295 296 297 299 299 298 297 298 296 297 297 298 298 299 299 299 301 301 303 305 306 304 305 306 306 299 301 301 302 306 307 305 304 302 299 298 297 295
296 293 293 294 293 292 292 292 292 290 291 291 291 290 289 287 289 291 292 292 292 293 293 293 294 295 296 295 296 296 295 295 294 295 296 296 295 295 294 296 298 299 299 301 301 302 302 303 298 300 300 300 300 300 304 304 302 299 297 296 296 295
297 296 295 293 294 293 293 292 291 292 293 293 291 289 289 288 289 291 292 292 292 293 293 293 293 294 294 294 294 294 293 293 294 294 294 294 294 293 294 297 297 297 297 298 299 299 298 298 297 298 299 299 299 299 300 302 300 296 295 295 295 294
295 295 294 294 294 293 293 291 292 293 292 291 289 289 290 290 289 291 292 292 292 293 292 292 292 293 294 293 293 293 293 293 295 294 294 293 291 293 294 294 295 295 295 296 297 298 296 296 294 296 297 297 297 298 299 299 297 295 294 294 293 292
295 295 294 293 293 292 291 291 292 291 290 289 289 289 290 290 290 291 292 293 293 292 292 292 292 292 293 293 292 292 293 294 294 292 292 292 292 293 294 293 293 292 293 293 293 294 294 295 293 295 296 296 297 297 297 294 293 292 291 291 291 291
299 298 299 298 292 292 291 292 293 291 291 289 290 289 290 291 291 292 292 292 292 292 292 291 291 292 292 292 292 292 293 293 293 292 290 290 291 291 291 291 291 292 291 291 292 292 293 291 292 294 294 295 296 296 293 292 291 291 290 290 290 290
301 301 297 294 294 294 294 293 290 290 289 289 289 289 289 290 291 292 292 292 292 292 292 292 292 292 292 292 292 292 292 292 291 290 289 290 290 290 290 290 289 290 291 290 290 292 292 290 291 293 293 294 295 293 291 290 290 289 289 289 289 289
299 297 295 295 294 294 294 291 290 290 290 290 289 289 289 289 290 291 291 292 292 292 292 292 293 292 292 292 292 292 292 291 290 290 289 291 290 289 289 289 289 289 290 290 290 291 292 290 289 291 293 294 294 292 291 290 290 289 288 288 288 289
299 297 295 293 293 295 293 291 290 290 290 290 290 289 290 290 291 291 291 292 293 292 292 293 293 293 292 292 292 292 291 290 290 290 289 290 290 290 289 289 290 288 288 288 289 288 291 290 288 290 292 293 293 291 290 290 290 288 287 287 287 286
294 296 297 296 295 295 292 290 289 290 291 291 290 289 290 291 292 293 293 292 291 292 292 292 292 292 292 291 291 291 290 290 290 289 289 289 290 290 289 289 289 288 288 287 287 288 289 289 289 289 292 292 292 291 290 290 290 288 287 287 287 286
295 296 296 297 297 295 292 290 290 291 291 291 290 290 291 292 293 293 292 291 291 291 291 292 292 292 291 291 291 290 290 290 290 289 288 289 289 289 288 288 288 288 287 286 286 287 287 288 288 288 291 292 292 291 290 289 290 289 288 287 286 287
293 294 294 295 295 293 291 289 290 291 292 291 291 292 293 292 293 292 290 290 291 291 291 291 291 291 291 290 289 289 289 288 288 288 288 289 289 288 287 287 287 287 286 286 286 286 286 286 287 288 289 291 291 291 291 290 289 289 288 287 287 286
293 294 294 295 294 292 289 288 289 291 291 291 292 294 293 292 292 291 290 290 289 289 289 290 290 290 290 289 289 289 288 288 288 287 288 288 287 288 287 287 287 286 286 285 286 286 286 286 286 287 288 289 291 291 291 290 289 290 288 288 287 287
291 292 293 293 294 292 289 288 289 290 290 291 294 293 291 291 290 289 289 288 289 288 288 289 289 289 289 289 289 289 288 287 287 287 288 288 288 288 287 287 287 287 286 285 285 285 285 285 287 287 287 288 290 291 291 290 290 289 288 288 288 287
290 290 291 292 292 292 290 288 288 289 289 293 293 290 290 290 288 288 288 288 288 288 288 288 289 289 288 288 289 288 288 287 287 287 287 288 288 288 287 287 287 287 286 286 285 285 285 285 286 287 287 287 288 290 290 290 289 289 288 286 286 286
287 288 288 290 291 291 290 289 288 288 291 293 291 290 289 288 287 287 288 288 288 288 288 288 288 288 288 288 289 289 289 288 288 288 287 288 288 288 288 287 287 287 286 286 286 286 285 285 286 286 287 287 287 287 288 289 288 287 286 285 285 284
288 288 288 288 290 290 290 289 288 288 289 289 289 288 287 287 287 287 287 287 287 287 287 287 288 288 288 288 289 289 289 289 288 288 287 288 288 288 288 287 287 287 286 286 286 285 285 285 285 286 286 287 287 287 287 287 286 285 284 284 284 284
287 287 287 288 289 289 289 288 288 288 287 287 287 286 286 287 287 287 287 287 287 287 287 288 287 288 288 288 288 288 288 288 288 288 288 288 289 288 288 287 287 287 287 286 286 285 285 285 285 285 286 286 287 287 287 286 285 284 284 283 283 283
287 287 287 287 288 287 287 287 287 286 285 285 285 285 285 286 286 287 286 286 287 287 287 288 288 288 288 288 288 288 288 288 288 288 288 289 290 290 290 288 288 288 288 287 286 285 285 284 284 285 286 287 287 287 286 285 284 283 282 282 282 278
286 286 286 286 286 286 285 285 285 283 280 281 283 283 285 286 286 285 286 286 287 287 287 288 288 288 288 288 287 287 286 286 288 288 289 288 287 288 288 289 289 288 288 287 287 287 287 286 286 286 286 286 287 287 287 286 285 283 281 282 282 280
285 285 284 285 284 283 283 283 283 282 282 282 284 284 285 285 286 286 286 286 287 287 287 288 288 288 288 287 287 286 285 283 284 285 287 287 287 287 287 288 288 288 288 288 286 285 285 286 287 286 286 286 287 287 287 286 284 283 283 283 279 277
284 284 283 283 282 281 281 281 282 281 282 283 285 285 285 285 285 286 286 287 287 287 287 288 287 287 287 287 286 286 285 283 282 282 284 285 285 286 286 287 286 287 287 287 286 285 284 285 286 286 285 286 286 286 286 285 284 285 284 283 282 276
283 282 281 281 280 280 280 280 280 279 279 281 283 285 285 285 285 285 286 286 287 287 287 287 287 287 287 286 285 285 285 283 282 281 280 282 284 284 285 285 286 286 286 285 285 285 285 284 285 285 285 285 285 285 285 285 285 285 284 283 278 275
281 281 280 279 279 278 278 278 278 276 276 276 278 281 284 285 286 286 287 287 287 287 287 287 287 287 286 286 286 286 285 285 284 283 280 279 280 281 282 284 284 284 284 285 285 284 285 285 285 285 284 285 285 285 285 285 284 285 284 280 276 275
280 280 279 277 277 277 277 277 276 273 273 274 277 279 282 285 286 286 283 282 283 287 287 287 286 286 286 285 285 285 285 285 283 282 281 280 280 280 279 279 281 283 284 283 284 285 285 285 285 284 284 285 285 285 286 285 283 280 277 276 274 275
278 278 277 276 276 276 276 276 274 273 273 274 276 278 280 283 285 285 285 284 284 286 286 286 286 286 286 285 285 285 285 283 282 281 281 280 279 278 278 277 278 279 282 283 284 284 284 284 285 285 285 285 285 285 285 281 279 278 276 275 274 274
Wind_Speed
11 10 12 11 10 11 11 10 7 8 9 10 11 13 14 13 11 12 12 13 12 12 14 15 15 14 14 14 13 11 11 13 12 12 12 9 9 9 9 10 10 10 11 11 11 11 11 11 11 11 10 11 10 11 10 10 10 10 11 11 11 11
10 9 9 9 9 9 8 7 5 8 8 8 10 9 6 7 10 11 12 13 12 12 11 13 13 13 13 13 12 12 12 13 12 12 11 11 8 9 10 10 11 11 11 11 11 11 10 11 11 11 11 11 11 10 10 10 11 11 11 11 10 10
9 6 6 7 7 7 7 6 8 8 6 9 10 11 10 10 11 10 11 10 11 12 14 14 13 14 12 13 12 12 12 12 11 11 11 8 9 9 9 10 11 11 11 11 11 11 11 11 11 10 10 10 11 11 11 11 12 12 10 9 10 10
9 7 6 6 7 8 9 8 7 9 10 10 8 8 9 11 11 11 11 10 10 12 13 13 10 11 11 12 11 12 12 12 11 11 9 10 10 9 10 11 10 10 11 11 11 11 11 11 11 10 10 10 11 11 10 11 11 11 11 11 11 10
9 9 10 10 10 10 9 8 9 9 9 9 8 9 12 9 8 6 6 7 9 11 10 8 9 9 9 11 11 12 12 12 11 9 10 10 9 9 10 11 10 10 11 11 11 11 11 11 11 10 11 11 11 11 10 10 11 12 11 11 11 11
8 9 11 11 10 9 10 9 8 9 9 9 7 10 8 5 6 6 6 7 9 9 8 10 9 9 10 11 12 13 12 11 9 8 10 10 9 9 10 10 11 10 11 11 11 11 10 11 11 10 10 11 10 10 11 11 11 11 11 11 11 10
10 11 10 10 10 8 8 8 8 8 8 6 8 8 6 6 6 7 8 8 9 9 9 10 9 10 11 12 10 11 11 10 9 8 10 9 10 11 10 10 10 11 12 12 12 11 11 11 10 11 10 10 11 11 11 10 10 10 10 11 11 10
9 10 10 10 10 9 7 7 7 7 7 8 7 8 7 7 5 7 7 8 9 10 10 10 9 10 12 11 10 10 9 8 8 9 9 11 12 10 10 11 10 11 11 11 11 11 11 11 10 11 11 11 10 10 10 10 9 9 9 9 9 10
13 12 10 9 8 6 7 7 8 7 7 8 7 7 7 7 6 7 7 8 9 9 10 10 11 10 9 9 9 7 7 9 9 9 10 9 10 10 10 10 11 10 11 11 11 11 11 11 11 10 11 11 9 9 9 9 9 9 8 9 9 9
11 11 11 8 8 7 7 7 7 7 7 9 6 6 7 6 6 7 7 7 8 10 10 9 7 8 8 7 6 7 8 8 8 9 8 8 10 10 11 11 11 10 10 10 11 11 10 10 10 11 10 9 8 8 9 9 9 9 8 7 8 8
9 11 11 8 6 8 9 8 8 8 8 8 7 7 8 6 7 8 8 8 10 11 9 6 6 6 7 7 7 8 8 8 7 7 7 8 9 9 9 9 10 10 10 10 10 9 9 10 10 9 8 8 8 8 8 8 9 9 8 7 6 5
10 12 9 9 8 9 9 9 9 9 9 10 9 9 8 7 9 8 9 11 12 9 7 7 6 7 6 7 9 8 7 7 7 8 8 8 8 8 8 8 8 9 10 10 9 8 8 8 7 10 14 12 9 8 8 7 8 7 7 6 5 4
10 8 8 10 11 11 10 10 9 7 8 10 9 10 8 8 9 9 9 12 9 7 7 7 8 7 8 8 7 7 7 8 7 8 8 8 8 9 8 8 9 8 7 8 8 9 8 8 7 12 13 13 13 9 7 7 7 6 6 6 6 7
12 10 10 10 11 10 10 11 9 6 11 10 10 9 6 8 10 10 10 9 7 8 8 8 7 8 8 7 8 8 7 7 7 8 8 8 8 8 6 7 8 7 7 7 7 8 8 7 9 13 13 13 14 11 7 6 6 6 6 6 7 6
13 12 10 8 11 11 12 8 7 11 13 10 9 5 8 10 11 9 9 8 8 9 8 7 8 8 8 8 7 7 7 8 8 8 8 9 7 5 8 8 7 8 7 7 8 7 7 6 9 12 13 13 13 13 10 6 6 7 6 7 7 7
11 11 10 11 11 11 9 5 10 13 7 6 5 8 8 9 10 9 8 6 8 8 8 8 9 9 8 7 7 7 7 8 9 7 6 6 5 7 7 6 8 7 7 7 7 7 6 7 8 12 12 12 13 13 10 6 6 6 6 7 7 6
12 12 12 11 11 9 6 10 12 10 6 4 5 6 6 7 8 8 8 8 8 8 8 9 9 9 8 8 7 7 8 8 6 7 7 6 7 8 8 7 7 6 6 7 6 5 6 7 9 10 11 11 12 12 8 5 5 5 4 4 5 6
12 12 14 11 5 9 8 12 10 7 9 3 7 7 7 6 7 9 7 8 9 10 9 10 10 9 8 9 8 8 9 8 8 7 5 4 4 3 3 3 4 6 5 5 6 6 6 4 8 10 9 10 10 11 6 6 6 5 5 6 5 5
14 12 9 8 9 11 12 9 2 5 5 7 8 7 7 7 8 9 10 10 9 10 10 10 10 10 10 10 10 10 10 8 7 5 4 4 4 4 4 4 3 3 5 5 5 6 6 5 6 9 10 11 13 9 6 7 5 5 6 6 6 5
13 12 10 10 11 12 10 5 6 7 8 10 8 8 8 8 11 10 9 11 11 11 10 10 11 11 11 11 13 12 9 7 5 6 4 5 4 4 4 4 3 3 4 6 7 7 7 5 6 9 10 13 14 11 8 7 7 6 5 5 4 4
9 11 9 9 12 14 9 6 6 7 10 10 9 9 10 11 11 10 13 15 13 11 10 10 10 10 11 13 12 10 10 10 9 6 6 6 5 6 5 4 5 4 3 4 5 7 8 6 7 10 11 13 14 10 6 7 6 7 5 5 6 4
8 11 13 12 13 11 5 4 6 9 12 11 7 9 12 13 14 16 15 9 7 9 9 9 11 11 10 12 9 9 10 8 7 8 8 7 6 6 6 5 5 6 4 3 4 5 5 7 5 7 12 13 13 12 8 6 8 7 7 6 7 7
8 11 13 13 11 8 6 5 6 10 12 10 8 13 14 13 13 13 10 8 8 10 12 11 12 13 11 9 10 8 7 8 9 8 9 8 6 6 6 7 5 6 5 3 3 4 3 4 6 6 12 13 14 14 11 7 7 7 8 7 7 6
9 10 12 11 11 10 6 5 8 12 12 9 14 17 11 10 13 11 6 9 10 10 11 12 12 11 10 8 7 9 9 6 7 8 8 7 7 8 8 7 6 6 5 4 3 3 4 4 7 7 11 14 14 14 13 8 7 9 9 7 6 6
10 11 12 12 10 8 5 5 9 13 12 13 19 14 8 12 12 9 9 9 9 10 11 10 11 11 8 9 9 9 8 7 8 8 8 8 8 9 9 8 7 6 6 4 4 3 3 4 4 9 9 13 14 15 13 11 8 10 7 9 9 9
8 10 11 11 11 9 5 5 10 12 13 18 18 8 9 11 10 9 10 10 10 9 10 10 10 9 8 9 9 9 9 9 9 8 8 9 9 8 9 7 7 7 7 8 5 4 3 3 3 7 10 12 15 14 13 12 11 11 6 4 4 4
9 10 12 13 13 12 7 5 8 14 16 20 10 5 9 7 5 7 9 10 10 10 9 8 9 10 9 9 11 11 10 10 10 10 9 9 9 9 9 8 8 8 7 6 6 6 5 4 4 4 8 11 13 13 12 11 11 10 9 6 5 6
7 7 10 14 13 12 9 6 6 13 18 14 8 8 6 6 8 9 12 10 9 9 7 9 9 8 9 10 9 10 9 11 11 11 9 9 9 9 9 9 9 8 8 7 6 7 6 5 4 4 5 6 8 8 10 11 11 10 8 8 7 9
9 10 9 12 13 11 10 8 7 10 12 12 10 7 6 7 9 10 9 9 8 7 8 10 8 8 8 9 8 7 8 8 8 8 10 9 10 9 9 9 10 9 9 8 7 7 7 7 6 6 5 5 6 5 7 8 7 9 9 8 7 8
9 10 10 12 11 10 11 10 9 9 9 9 8 8 7 8 9 10 9 9 7 7 8 9 9 10 8 8 8 9 9 9 9 10 12 13 13 13 11 11 11 11 11 9 8 8 8 8 7 7 7 7 7 7 6 6 6 5 5 8 6 6
11 11 11 12 9 8 9 11 10 8 9 8 6 6 8 10 8 8 7 6 6 7 7 8 8 9 9 8 8 7 8 9 10 10 7 6 6 9 11 11 9 8 8 9 10 10 8 9 9 9 6 8 11 12 10 8 7 5 4 7 11 9
9 12 12 11 8 8 8 10 10 7 6 6 5 4 8 9 7 7 7 6 7 7 7 8 8 9 9 9 9 8 5 4 8 7 8 8 8 10 11 12 10 10 9 9 9 11 13 12 10 13 15 12 11 11 11 11 13 11 9 13 14 8
8 9 11 11 8 8 8 8 7 7 6 5 5 5 7 7 7 7 6 6 7 8 9 8 8 8 8 8 8 8 9 6 3 2 4 8 9 10 10 12 11 16 16 13 10 5 2 7 13 19 17 16 14 14 12 13 13 14 16 17 11 5
8 9 11 9 8 9 8 7 5 5 5 5 6 5 7 7 7 8 7 7 6 7 8 7 8 8 8 8 7 8 8 10 8 4 5 4 7 7 9 10 11 14 13 12 11 11 5 11 17 18 17 17 17 15 15 16 16 17 17 14 10 8
7 7 8 8 9 9 8 6 4 2 4 4 6 7 7 7 8 9 7 6 6 6 8 7 8 8 8 9 9 9 8 9 11 12 7 4 6 7 6 8 10 13 14 13 12 13 14 15 17 18 17 17 17 17 16 17 18 18 16 14 7 7
7 7 7 8 9 9 8 7 3 1 2 3 4 7 8 8 8 8 7 5 6 6 6 7 7 8 8 8 8 8 8 8 7 9 9 9 7 7 7 6 5 9 11 11 13 13 14 17 19 19 18 17 17 17 18 17 13 16 13 9 7 6
8 8 7 7 8 8 8 8 4 1 1 1 2 5 8 8 8 7 7 8 6 5 6 6 6 7 7 7 8 8 8 8 7 8 9 8 7 7 7 6 5 4 5 9 11 14 17 18 17 16 17 18 18 18 19 18 11 8 4 4 3 5
8 8 7 6 7 8 8 8 5 1 1 1 1 3 6 8 7 7 6 5 7 6 5 5 6 6 7 8 8 7 7 6 7 8 7 7 6 7 8 6 4 4 5 10 12 16 16 16 17 18 18 18 19 20 20 11 7 7 6 6 5 5
Wind_Direction
251 247 246 248 246 246 244 249 236 227 228 228 229 225 219 214 208 211 214 211 212 212 212 211 212 214 217 220 221 214 212 217 216 215 219 212 197 194 190 191 193 192 194 198 199 197 200 203 208 207 209 208 213 215 217 214 213 213 216 216 215 220
257 255 260 264 257 256 254 254 256 247 237 233 235 244 240 219 215 213 216 214 212 214 212 214 215 215 217 217 214 214 215 219 215 216 216 214 194 198 190 191 193 191 193 197 199 200 200 202 207 206 208 208 213 213 213 214 213 217 218 218 213 216
279 269 257 263 274 272 275 258 247 245 238 232 228 224 223 219 218 212 218 211 214 215 213 214 211 214 214 217 214 215 218 221 216 215 217 198 203 193 190 196 196 194 195 196 199 201 201 203 207 206 208 210 213 213 212 212 212 215 218 216 216 214
291 296 291 277 274 266 257 248 239 245 233 227 224 222 225 220 220 212 216 210 214 216 219 218 214 214 214 216 215 215 218 220 216 214 203 204 208 192 196 199 197 195 195 198 202 206 205 204 205 204 208 213 215 216 214 213 211 214 216 212 217 214
288 290 284 276 264 263 250 241 229 232 231 227 223 215 228 218 224 219 219 215 215 223 223 219 218 212 212 213 215 217 217 219 216 206 206 207 207 197 197 200 197 196 198 200 204 206 208 208 209 207 210 215 215 216 213 211 211 213 214 215 216 215
284 288 285 279 265 251 246 236 231 232 228 224 218 225 230 215 219 209 208 216 221 221 214 215 214 206 209 212 215 217 216 216 212 200 206 207 203 198 202 201 199 199 200 204 206 208 207 209 212 214 213 215 214 216 216 215 212 213 215 216 217 217
289 282 274 269 269 261 251 245 237 232 235 221 222 230 221 217 204 200 208 208 218 217 216 219 210 210 213 217 216 218 215 214 206 194 202 203 205 203 200 204 203 202 203 207 207 207 210 212 212 215 216 216 217 218 217 215 213 213 215 216 217 216
279 279 269 260 251 248 248 242 238 235 231 229 218 222 220 220 209 213 207 208 212 217 216 219 211 215 218 217 218 217 213 206 203 202 205 205 209 206 205 203 205 205 206 207 208 208 210 211 213 215 217 218 216 214 214 213 212 212 213 214 216 216
272 266 267 252 259 251 246 242 241 231 228 235 223 218 216 213 204 215 213 213 215 218 219 215 214 213 216 215 215 208 204 207 206 202 207 204 209 207 208 207 205 207 206 208 209 211 211 212 212 213 218 219 211 208 208 211 212 212 211 213 215 215
281 280 273 267 255 260 260 249 247 245 233 235 229 217 211 199 184 202 211 213 221 225 224 217 213 213 215 213 209 207 208 206 205 207 205 195 206 211 209 205 206 207 207 210 210 211 208 211 215 216 214 206 200 202 209 208 207 208 211 214 214 208
270 279 276 271 269 261 257 255 250 246 250 244 238 217 215 188 187 203 201 206 217 223 218 212 211 209 209 206 206 207 206 204 204 202 200 200 208 210 211 207 204 206 209 213 212 211 209 210 210 204 201 205 206 205 205 206 207 205 207 212 213 206
252 259 275 288 268 261 260 255 248 238 235 240 230 225 215 163 201 206 210 211 215 212 203 208 210 208 206 205 207 207 200 198 198 196 201 206 205 206 206 208 208 208 207 206 209 208 204 207 206 202 201 200 197 195 202 202 202 200 202 199 195 193
244 258 272 270 264 251 248 249 249 241 241 242 229 224 206 175 193 213 219 230 220 203 198 198 208 202 209 211 207 204 200 200 196 199 203 204 201 203 204 201 205 209 205 202 201 205 209 207 203 202 202 202 198 192 194 194 196 195 189 184 181 190
288 268 260 262 264 258 250 250 248 237 244 235 228 216 179 188 205 212 222 229 209 201 196 193 196 201 210 204 211 205 205 200 199 203 202 200 202 205 192 199 205 201 202 204 204 204 204 207 204 200 202 201 199 192 188 188 183 176 179 178 183 182
276 272 260 261 259 256 249 245 255 240 239 233 225 162 191 200 205 210 221 222 215 208 198 191 198 205 205 207 203 200 194 196 198 198 195 200 197 180 193 205 197 206 202 199 201 206 203 207 204 200 199 198 194 189 179 176 167 167 180 181 179 169
271 268 254 249 256 250 257 236 239 249 243 228 188 194 204 202 207 210 215 215 224 215 195 191 195 203 205 197 196 190 191 191 198 194 190 180 175 187 194 193 197 197 196 196 196 199 198 202 201 196 193 189 182 176 170 168 164 168 170 174 165 159
260 272 274 258 247 255 241 249 237 251 262 204 203 211 207 212 201 211 211 211 218 214 203 195 196 200 194 191 190 190 197 196 194 190 190 181 181 185 189 185 188 194 190 187 186 187 189 197 185 183 179 179 175 168 153 136 134 135 143 145 152 159
259 257 264 265 242 240 226 241 238 208 239 177 210 201 206 203 205 217 208 217 213 214 206 192 196 194 186 185 186 192 198 197 191 190 187 183 186 191 171 194 184 181 187 184 172 171 194 198 182 175 174 167 160 144 127 133 137 137 137 144 156 161
272 269 268 269 255 255 249 251 210 209 221 213 221 200 201 193 213 217 213 219 215 214 208 195 190 191 187 183 186 194 195 189 188 184 167 178 190 185 194 192 180 178 181 177 183 179 184 187 187 172 164 157 149 138 133 133 129 137 149 159 160 153
274 275 266 264 263 254 258 238 194 209 221 229 210 199 209 203 219 218 213 219 216 211 208 198 189 190 187 184 193 194 187 175 172 179 167 183 184 199 196 176 184 192 188 181 186 186 172 188 186 172 162 157 157 155 153 154 146 150 150 140 142 146
287 293 292 266 267 265 256 240 221 218 239 233 217 209 213 215 221 217 216 219 211 202 202 199 194 193 191 193 195 185 179 180 179 166 165 186 183 191 179 181 181 182 191 199 192 188 179 174 182 175 167 165 160 153 149 147 143 147 159 156 151 127
299 296 287 273 261 269 302 246 226 239 247 248 220 221 224 221 220 221 222 213 185 193 194 200 200 199 199 200 187 182 182 168 165 177 178 183 183 181 178 180 181 177 186 178 180 184 182 166 168 174 169 166 162 156 151 152 147 158 165 169 163 160
285 280 282 287 287 283 262 223 232 249 250 250 240 238 231 226 229 231 222 197 191 191 196 197 201 200 204 201 190 177 167 174 176 169 176 180 177 164 168 175 175 171 164 165 172 166 171 171 161 178 174 169 166 160 156 164 166 161 164 169 173 173
290 289 290 283 283 281 263 234 242 252 254 245 243 243 233 229 235 232 205 203 203 202 198 200 204 203 198 185 172 175 181 175 166 172 175 175 171 169 170 168 166 162 154 156 159 166 168 174 172 164 179 173 171 171 169 166 176 169 158 164 177 169
299 296 294 297 297 289 259 226 245 255 256 249 248 244 226 231 233 216 208 209 208 205 205 207 202 197 187 183 181 175 175 167 167 171 170 172 169 170 170 171 167 159 150 156 163 167 167 166 171 173 172 177 174 176 177 175 166 172 166 165 172 181
289 293 294 297 296 294 274 222 254 260 259 257 256 247 233 235 225 207 207 210 209 203 205 203 199 195 185 179 172 173 170 174 175 171 175 172 170 169 168 171 168 165 162 161 162 172 176 175 167 180 175 173 176 177 175 168 162 165 168 161 157 147
292 298 298 296 299 299 291 243 249 265 264 263 278 259 247 241 222 209 215 215 210 207 204 189 193 191 187 180 173 176 178 175 174 173 177 171 174 173 171 173 171 171 167 158 166 174 180 181 177 170 179 175 175 174 170 160 153 143 132 132 134 140
293 290 292 297 298 300 298 273 236 258 266 281 298 267 256 227 217 218 219 217 210 207 184 190 194 190 190 182 184 185 183 180 179 178 175 175 179 177 174 171 172 172 170 171 171 176 177 173 170 173 165 169 166 164 162 155 152 146 139 129 135 143
305 299 296 294 299 303 298 294 270 254 272 280 289 290 257 235 225 227 225 215 207 189 183 190 190 188 189 188 186 185 181 180 182 179 178 182 177 178 178 172 172 173 173 175 172 170 171 173 173 172 164 160 157 154 150 141 135 126 123 118 122 122
295 295 295 291 293 299 300 304 295 286 278 275 275 271 259 247 234 228 224 212 195 192 187 194 186 183 186 190 187 186 185 186 185 187 187 185 181 177 183 178 180 179 176 173 168 165 170 178 180 180 172 164 157 155 151 148 143 151 154 135 123 115
297 289 287 285 290 295 298 300 302 301 291 280 272 253 246 247 242 238 229 202 187 194 187 191 187 190 186 186 191 198 198 189 188 192 198 210 198 190 179 178 178 173 169 162 164 166 173 177 188 193 176 172 168 160 156 159 161 149 140 137 130 111
278 288 289 287 294 296 295 298 303 306 301 296 283 256 250 254 247 237 232 201 195 190 184 192 191 191 189 186 186 178 174 196 195 200 188 189 198 195 186 171 177 173 163 168 180 176 171 182 187 164 163 164 164 165 164 160 154 149 140 142 137 127
286 285 285 289 301 296 295 295 306 313 318 310 296 275 261 259 248 243 236 215 213 199 192 192 190 188 188 188 182 175 164 127 93 63 188 187 176 181 184 184 169 172 176 170 166 176 114 144 156 161 152 153 156 156 152 149 140 139 142 137 120 94
290 286 290 298 299 296 296 296 307 318 320 317 296 277 269 261 252 245 232 223 223 204 200 193 189 182 182 183 180 176 166 150 139 97 52 110 156 166 173 175 164 168 168 173 162 152 146 146 152 154 152 150 149 150 151 148 143 145 144 146 126 117
286 285 288 293 295 297 293 294 305 344 335 333 323 302 273 263 259 262 258 240 219 212 202 194 187 185 183 179 178 178 172 167 167 156 136 87 85 116 150 170 169 161 160 153 156 158 154 152 149 146 145 146 148 148 147 145 145 144 142 128 121 138
278 278 279 283 284 287 289 288 288 120 309 338 322 312 294 275 263 261 265 249 229 214 207 201 191 186 187 181 182 181 177 177 172 161 138 133 127 96 72 64 117 146 135 139 146 146 144 145 144 144 145 145 145 142 138 139 138 140 140 138 146 146
276 274 269 273 278 279 278 279 265 182 57 343 323 313 301 285 265 257 255 248 232 221 216 204 194 187 178 177 180 179 182 175 166 154 155 156 148 141 135 135 121 94 85 138 139 140 139 140 138 139 143 144 143 141 139 133 132 135 108 98 113 133
265 268 271 266 272 273 274 273 265 221 128 97 334 317 298 292 270 251 241 232 224 223 215 205 201 191 184 180 180 176 171 158 154 159 157 142 126 129 130 113 92 102 93 116 131 137 135 131 134 138 140 142 142 143 143 136 135 134 132 119 131 128